Location: Manosque
(43.8357°N, 5.7909°E)
Time: 14:02:17
(UTC+02:00)

Tiangong 1 - Pass Details

Date: 31 March 2018
Orbit: 144 x 152 km, 42.7° (Epoch: 01 April)

Event Time Altitude Azimuth Distance (km) Brightness Sun altitude
Rises 10:23:42 0° 271° (W) 1,501 3.6 31.3°
Reaches altitude 10° 10:25:36 10° 252° (WSW) 755 2.3 31.6°
Maximum altitude 10:26:56 20° 198° (SSW) 465 1.8 31.8°
Drops below altitude 10° 10:28:17 10° 144° (SE) 755 3.7 32.0°
Sets 10:30:10 0° 125° (SE) 1,499 5.2 32.3°
